Time,TemperatureF,DewpointF,PressureIn,WindDirection,WindDirectionDegrees,WindSpeedMPH,WindSpeedGustMPH,Humidity,HourlyPrecipIn,Conditions,Clouds,dailyrainin,SolarRadiationWatts/m^2,SoftwareType,DateUTC
2013-02-21 02:00:00,36.0,18.0,28.54,NNE,32,5.0,-999.0,49,-99.99,,,-99.99,0.000000,,2013-02-21 08:00:00,
2013-02-21 02:52:00,36.0,18.0,28.54,NNE,32,5.0,-999.0,49,-99.99,,,-99.99,0.000000,,2013-02-21 08:52:00,
2013-02-21 03:00:00,33.0,20.0,28.71,NE,41,3.0,-999.0,58,-99.99,,,-99.99,0.000000,,2013-02-21 09:00:00,
2013-02-21 03:52:00,33.0,20.0,28.71,NE,41,3.0,-999.0,58,-99.99,,,-99.99,0.000000,,2013-02-21 09:52:00,
2013-02-21 04:00:00,32.0,20.0,28.58,ENE,58,3.0,-999.0,62,-99.99,,,-99.99,0.000000,,2013-02-21 10:00:00,
2013-02-21 04:51:00,32.0,20.0,28.58,ENE,58,3.0,-999.0,62,-99.99,,,-99.99,0.000000,,2013-02-21 10:51:00,
2013-02-21 05:00:00,31.0,21.0,28.58,ENE,60,3.0,-999.0,64,-99.99,,,-99.99,0.000000,,2013-02-21 11:00:00,
2013-02-21 05:52:00,31.0,21.0,28.58,ENE,60,3.0,-999.0,64,-99.99,,,-99.99,0.000000,,2013-02-21 11:52:00,
2013-02-21 06:00:00,31.0,21.0,28.55,NE,43,3.0,-999.0,66,-99.99,,,-99.99,0.000000,,2013-02-21 12:00:00,
2013-02-21 06:53:00,31.0,21.0,28.55,NE,43,3.0,-999.0,66,-99.99,,,-99.99,0.000000,,2013-02-21 12:53:00,
2013-02-21 07:00:00,31.0,21.0,28.58,NE,41,2.0,-999.0,67,-99.99,,,-99.99,12.270000,,2013-02-21 13:00:00,
2013-02-21 07:52:00,31.0,21.0,28.58,NE,41,2.0,-999.0,67,-99.99,,,-99.99,12.270000,,2013-02-21 13:52:00,
2013-02-21 08:00:00,36.0,22.0,28.53,NE,36,4.0,-999.0,56,-99.99,,,-99.99,163.899994,,2013-02-21 14:00:00,
2013-02-21 08:52:00,36.0,22.0,28.53,NE,36,4.0,-999.0,56,-99.99,,,-99.99,163.899994,,2013-02-21 14:52:00,
2013-02-21 09:00:00,41.0,22.0,28.58,NNE,24,5.0,-999.0,48,-99.99,,,-99.99,352.200012,,2013-02-21 15:00:00,
2013-02-21 09:52:00,41.0,22.0,28.58,NNE,24,5.0,-999.0,48,-99.99,,,-99.99,352.200012,,2013-02-21 15:52:00,
2013-02-21 10:00:00,47.0,20.0,28.50,North,11,5.0,-999.0,33,-99.99,,,-99.99,513.700012,,2013-02-21 16:00:00,
2013-02-21 10:52:00,47.0,20.0,28.50,North,11,5.0,-999.0,33,-99.99,,,-99.99,513.700012,,2013-02-21 16:52:00,
2013-02-21 11:00:00,53.0,14.0,28.37,East,93,4.0,-999.0,21,-99.99,,,-99.99,634.000000,,2013-02-21 17:00:00,
2013-02-21 11:52:00,53.0,14.0,28.37,East,93,4.0,-999.0,21,-99.99,,,-99.99,634.000000,,2013-02-21 17:52:00,
2013-02-21 12:00:00,57.0,14.0,28.43,SE,129,6.0,-999.0,18,-99.99,,,-99.99,636.200012,,2013-02-21 18:00:00,
2013-02-21 12:52:00,57.0,14.0,28.43,SE,129,6.0,-999.0,18,-99.99,,,-99.99,636.200012,,2013-02-21 18:52:00,
2013-02-21 13:00:00,56.0,13.0,28.45,SE,140,6.0,-999.0,18,-99.99,,,-99.99,369.299988,,2013-02-21 19:00:00,
2013-02-21 13:52:00,56.0,13.0,28.45,SE,140,6.0,-999.0,18,-99.99,,,-99.99,369.299988,,2013-02-21 19:52:00,
2013-02-21 14:00:00,56.0,21.0,28.39,ESE,103,5.0,-999.0,25,-99.99,,,-99.99,197.300003,,2013-02-21 20:00:00,
2013-02-21 14:53:00,56.0,21.0,28.39,ESE,103,5.0,-999.0,25,-99.99,,,-99.99,197.300003,,2013-02-21 20:53:00,
2013-02-21 15:00:00,56.0,23.0,28.30,ESE,113,5.0,-999.0,27,-99.99,,,-99.99,85.400002,,2013-02-21 21:00:00,
2013-02-21 15:52:00,56.0,23.0,28.30,ESE,113,5.0,-999.0,27,-99.99,,,-99.99,85.400002,,2013-02-21 21:52:00,
2013-02-21 22:00:00,46.0,43.0,30.01,East,100,7.0,-999.0,90,-99.99,,,-99.99,0.000000,,2013-02-22 04:00:00,
2013-02-21 22:52:00,46.0,43.0,30.01,East,100,7.0,-999.0,90,-99.99,,,-99.99,0.000000,,2013-02-22 04:52:00,
2013-02-21 23:00:00,47.0,44.0,29.98,ESE,114,9.0,-999.0,89,-99.99,,,-99.99,0.000000,,2013-02-22 05:00:00,
2013-02-21 23:52:00,47.0,44.0,29.98,ESE,114,9.0,-999.0,89,-99.99,,,-99.99,0.000000,,2013-02-22 05:52:00,